Weather History for PHHI - March, 2013

Change the Weather History Date:

Friday, March 15, 2013

  Actual Average Record
Temperature  
Mean Temperature 66 °F -  
Max Temperature 72 °F 74 °F 80 °F (2002)
Min Temperature 59 °F 59 °F 55 °F (2005)
Growing Degree Days 16 (Base 50)    
Moisture  
Dew Point 58 °F    
Average Humidity 76    
Maximum Humidity 91    
Minimum Humidity 59    
Precipitation  
Precipitation 0.02 in - - ()
Sea Level Pressure  
Sea Level Pressure 29.93 in    
Wind  
Wind Speed 6 mph (NW)    
Max Wind Speed 16 mph    
Max Gust Speed 23 mph    
Visibility 10 miles    
Events Rain    
Averages and records for this station are not official NWS values.
T = Trace of Precipitation, MM = Missing Value Source: NWS Daily Summary

Daily Weather History Graph

Daily Weather History Graph

Search for Another Location

Airport or City:

Trip Planner

Search our weather history database for the weather conditions in past years. The results will help you decide how hot, cold, wet, or windy it might be!

Date:

Astronomy

Mar. 15, 2013 Rise Set
Actual Time 6:40 AM HST 6:41 PM HST
Civil Twilight 6:18 AM HST 7:03 PM HST
Nautical Twilight 5:52 AM HST 7:29 PM HST
Astronomical Twilight 5:26 AM HST 7:55 PM HST
Moon 9:11 AM HST (3/15) 10:30 PM HST (3/15)
Length of Visible Light 12h 45m
Length of Day
12h 01m
Waxing Crescent, 17% of the Moon is Illuminated
Mar 15
Waxing Crescent
Mar 19
First Quarter
Mar 26
Full
Apr 2
Last Quarter
Apr 9
New

Hourly Weather History & Observations

Time (HST) Temp. Dew Point Humidity Pressure Visibility Wind Dir Wind Speed Gust Speed Precip Events Conditions
12:55 AM 60.6 °F 57.2 °F 88% 29.97 in 10.0 mi NNW 3.5 mph - N/A   Clear
1:55 AM 61.9 °F 57.0 °F 84% 29.95 in 10.0 mi NNW 5.8 mph - N/A   Partly Cloudy
2:55 AM 59.5 °F 55.0 °F 85% 29.94 in 10.0 mi NNW 3.5 mph - N/A   Clear
3:55 AM 59.5 °F 55.9 °F 88% 29.93 in 10.0 mi East 3.5 mph - N/A   Clear
4:55 AM 59.5 °F 55.6 °F 87% 29.92 in 10.0 mi Calm Calm - N/A   Clear
5:55 AM 60.6 °F 56.5 °F 86% 29.93 in 10.0 mi North 4.6 mph - N/A   Mostly Cloudy
6:55 AM 59.4 °F 55.0 °F 86% 29.94 in 10.0 mi Calm Calm - N/A   Mostly Cloudy
7:55 AM 64.9 °F 58.8 °F 81% 29.95 in 10.0 mi Calm Calm - N/A   Clear
8:55 AM 67.3 °F 56.5 °F 68% 29.96 in 10.0 mi Variable 3.5 mph - N/A   Clear
9:55 AM 71.1 °F 56.5 °F 60% 29.96 in 10.0 mi Calm Calm - N/A   Partly Cloudy
10:55 AM 72.0 °F 56.8 °F 59% 29.96 in 10.0 mi West 9.2 mph 21.9 mph N/A   Clear
11:55 AM 72.3 °F 57.0 °F 59% 29.94 in 10.0 mi West 10.4 mph 23.0 mph N/A   Partly Cloudy
12:55 PM 72.0 °F 58.1 °F 62% 29.92 in 10.0 mi WSW 12.7 mph 19.6 mph N/A   Partly Cloudy
1:55 PM 71.4 °F 57.7 °F 62% 29.89 in 10.0 mi West 16.1 mph 21.9 mph N/A   Partly Cloudy
2:07 PM 71.6 °F 59.0 °F 64% 29.90 in 10.0 mi West 16.1 mph - N/A   Light Drizzle
2:17 PM 69.8 °F 59.0 °F 68% 29.90 in 10.0 mi WSW 10.4 mph - N/A   Mostly Cloudy
2:47 PM 69.8 °F 59.0 °F 68% 29.90 in 10.0 mi WSW 9.2 mph - N/A   Light Drizzle
2:55 PM 69.4 °F 59.7 °F 71% 29.89 in 10.0 mi SW 10.4 mph - 0.00 in   Overcast
3:06 PM 69.8 °F 59.0 °F 68% 29.90 in 10.0 mi WSW 15.0 mph 19.6 mph N/A   Light Drizzle
3:18 PM 68.0 °F 59.0 °F 73% 29.88 in 10.0 mi West 10.4 mph - N/A   Overcast
3:44 PM 69.8 °F 60.8 °F 73% 29.89 in 10.0 mi NW 11.5 mph - N/A   Light Drizzle
3:55 PM 69.1 °F 60.6 °F 74% 29.89 in 10.0 mi NW 9.2 mph - 0.00 in   Light Drizzle
3:56 PM 69.8 °F 60.8 °F 73% 29.89 in 10.0 mi NW 8.1 mph - N/A   Mostly Cloudy
4:55 PM 69.3 °F 55.8 °F 62% 29.90 in 10.0 mi West 4.6 mph - N/A   Clear
5:55 PM 69.1 °F 54.7 °F 60% 29.91 in 10.0 mi NNW 8.1 mph - N/A   Overcast
6:55 PM 67.6 °F 55.8 °F 66% 29.93 in 10.0 mi West 6.9 mph - N/A   Overcast
7:32 PM 66.2 °F 59.0 °F 78% 29.94 in 10.0 mi NNW 9.2 mph - N/A   Overcast
7:55 PM 65.1 °F 60.1 °F 84% 29.94 in 10.0 mi NNW 8.1 mph - N/A   Mostly Cloudy
8:55 PM 64.4 °F 60.8 °F 88% 29.95 in 10.0 mi North 4.6 mph - N/A   Mostly Cloudy
9:16 PM 64.4 °F 60.8 °F 88% 29.96 in 10.0 mi NNW 4.6 mph - N/A   Light Drizzle
9:39 PM 64.4 °F 60.8 °F 88% 29.97 in 6.0 mi NW 6.9 mph - N/A Rain Rain
9:41 PM 64.4 °F 60.8 °F 88% 29.97 in 5.0 mi NNW 8.1 mph - N/A Rain Rain
9:55 PM 63.9 °F 61.2 °F 91% 29.96 in 10.0 mi North 8.1 mph - 0.02 in   Light Drizzle
10:01 PM 64.4 °F 60.8 °F 88% 29.96 in 10.0 mi North 6.9 mph - N/A   Mostly Cloudy
10:55 PM 63.9 °F 60.4 °F 89% 29.95 in 10.0 mi NNW 9.2 mph - 0.00 in   Mostly Cloudy
11:55 PM 63.7 °F 59.9 °F 87% 29.94 in 10.0 mi NW 8.1 mph - N/A   Mostly Cloudy